Time,TemperatureF,DewpointF,PressureIn,WindDirection,WindDirectionDegrees,WindSpeedMPH,WindSpeedGustMPH,Humidity,HourlyPrecipIn,Conditions,Clouds,dailyrainin,SolarRadiationWatts/m^2,SoftwareType,DateUTC
2013-02-24 00:00:00,34.1,32.3,29.86,WNW,300,10.0,10.0,93,0.00,-RA,,0.06,0.0,WeatherDisplay:10.37,2013-02-24 05:00:00,
2013-02-24 00:02:00,34.1,32.3,29.86,NW,315,13.8,13.8,93,0.00,-RA,,0.00,0.0,WeatherDisplay:10.37,2013-02-24 05:02:00,
2013-02-24 00:07:00,34.3,32.5,29.86,WNW,293,4.0,4.0,93,0.00,-RA,,0.00,0.0,WeatherDisplay:10.37,2013-02-24 05:07:00,
2013-02-24 00:12:00,34.4,32.6,29.87,WNW,294,6.9,6.9,93,0.00,-RA,,0.00,0.0,WeatherDisplay:10.37,2013-02-24 05:12:00,
2013-02-24 00:17:00,34.3,32.5,29.87,West,275,10.4,10.4,93,0.00,-RA,,0.00,0.0,WeatherDisplay:10.37,2013-02-24 05:17:00,
2013-02-24 00:22:00,34.1,32.3,29.87,WNW,296,10.4,10.4,93,0.00,-RA,,0.00,0.0,WeatherDisplay:10.37,2013-02-24 05:22:00,
2013-02-24 00:27:00,34.0,32.2,29.87,West,271,7.0,7.0,93,0.00,-RA,,0.00,0.0,WeatherDisplay:10.37,2013-02-24 05:27:00,
2013-02-24 00:32:00,33.8,31.7,29.87,West,272,5.0,5.0,92,0.00,-RA,,0.00,0.0,WeatherDisplay:10.37,2013-02-24 05:32:00,
2013-02-24 00:37:00,33.8,31.7,29.87,WSW,251,5.0,5.0,92,0.00,-RA,,0.00,0.0,WeatherDisplay:10.37,2013-02-24 05:37:00,
2013-02-24 00:42:00,33.7,31.9,29.88,West,270,6.0,6.0,93,0.00,-RA,,0.00,0.0,WeatherDisplay:10.37,2013-02-24 05:42:00,
2013-02-24 00:47:00,33.7,31.6,29.88,West,260,4.6,4.6,92,0.00,-RA,,0.00,0.0,WeatherDisplay:10.37,2013-02-24 05:47:00,
2013-02-24 00:52:00,33.5,31.4,29.88,WNW,291,4.6,4.6,92,0.00,-RA,,0.00,0.0,WeatherDisplay:10.37,2013-02-24 05:52:00,
2013-02-24 00:57:00,33.5,31.4,29.87,West,267,5.0,5.0,92,0.00,-RA,,0.00,0.0,WeatherDisplay:10.37,2013-02-24 05:57:00,
2013-02-24 01:02:00,33.4,31.3,29.87,WSW,257,5.0,5.0,92,0.00,-RA,,0.00,0.0,WeatherDisplay:10.37,2013-02-24 06:02:00,
2013-02-24 01:07:00,33.2,31.1,29.87,West,265,9.2,9.2,92,0.00,-RA,,0.00,0.0,WeatherDisplay:10.37,2013-02-24 06:07:00,
2013-02-24 01:12:00,33.1,31.0,29.87,West,260,8.1,8.1,92,0.00,OVC,,0.00,0.0,WeatherDisplay:10.37,2013-02-24 06:12:00,
2013-02-24 01:17:00,33.1,31.0,29.87,WSW,248,5.0,5.0,92,0.00,OVC,,0.00,0.0,WeatherDisplay:10.37,2013-02-24 06:17:00,
2013-02-24 01:22:00,32.9,30.8,29.87,WSW,252,5.8,5.8,92,0.00,OVC,,0.00,0.0,WeatherDisplay:10.37,2013-02-24 06:22:00,
2013-02-24 01:27:00,32.9,30.8,29.87,WNW,283,6.0,6.0,92,0.00,OVC,,0.00,0.0,WeatherDisplay:10.37,2013-02-24 06:27:00,
2013-02-24 01:32:00,32.9,30.8,29.87,SW,228,5.0,5.0,92,0.00,OVC,,0.00,0.0,WeatherDisplay:10.37,2013-02-24 06:32:00,
2013-02-24 01:37:00,32.9,30.8,29.87,West,279,2.3,2.3,92,0.00,OVC,,0.00,0.0,WeatherDisplay:10.37,2013-02-24 06:37:00,
2013-02-24 01:43:00,32.9,30.8,29.87,West,268,6.0,6.0,92,0.00,OVC,,0.00,0.0,WeatherDisplay:10.37,2013-02-24 06:43:00,
2013-02-24 01:48:00,32.9,30.8,29.87,West,274,0.0,0.0,92,0.00,OVC,,0.00,0.0,WeatherDisplay:10.37,2013-02-24 06:48:00,
2013-02-24 01:53:00,32.9,30.8,29.87,WSW,247,3.5,3.5,92,0.00,OVC,,0.00,0.0,WeatherDisplay:10.37,2013-02-24 06:53:00,
2013-02-24 01:58:00,33.1,31.0,29.87,WSW,248,3.5,3.5,92,0.00,OVC,,0.00,0.0,WeatherDisplay:10.37,2013-02-24 06:58:00,
2013-02-24 02:03:00,33.1,31.0,29.87,SSW,205,1.1,1.1,92,0.00,OVC,,0.00,0.0,WeatherDisplay:10.37,2013-02-24 07:03:00,
2013-02-24 02:08:00,33.1,31.0,29.87,SW,225,5.0,5.0,92,0.00,OVC,,0.00,0.0,WeatherDisplay:10.37,2013-02-24 07:08:00,
2013-02-24 02:13:00,33.1,31.0,29.87,West,281,4.0,4.0,92,0.00,OVC,,0.00,0.0,WeatherDisplay:10.37,2013-02-24 07:13:00,
2013-02-24 02:18:00,33.1,31.0,29.87,WSW,246,3.5,3.5,92,0.00,OVC,,0.00,0.0,WeatherDisplay:10.37,2013-02-24 07:18:00,
2013-02-24 02:23:00,32.9,30.8,29.87,SW,235,5.0,5.0,92,0.00,OVC,,0.00,0.0,WeatherDisplay:10.37,2013-02-24 07:23:00,
2013-02-24 02:28:00,32.9,30.8,29.86,WSW,251,4.0,4.0,92,0.00,OVC,,0.00,0.0,WeatherDisplay:10.37,2013-02-24 07:28:00,
2013-02-24 02:33:00,32.9,30.8,29.86,West,262,4.6,4.6,92,0.00,OVC,,0.00,0.0,WeatherDisplay:10.37,2013-02-24 07:33:00,
2013-02-24 02:38:00,32.8,30.7,29.86,SW,234,3.0,3.0,92,0.00,OVC,,0.00,0.0,WeatherDisplay:10.37,2013-02-24 07:38:00,
2013-02-24 02:43:00,32.8,30.7,29.85,West,261,4.6,4.6,92,0.00,OVC,,0.00,0.0,WeatherDisplay:10.37,2013-02-24 07:43:00,
2013-02-24 02:48:00,32.8,30.7,29.85,WSW,245,3.5,3.5,92,0.00,OVC,,0.00,0.0,WeatherDisplay:10.37,2013-02-24 07:48:00,
2013-02-24 02:53:00,32.8,30.5,29.85,WSW,257,5.0,5.0,91,0.00,OVC,,0.00,0.0,WeatherDisplay:10.37,2013-02-24 07:53:00,
2013-02-24 02:58:00,32.7,30.4,29.84,West,265,5.0,5.0,91,0.00,OVC,,0.00,0.0,WeatherDisplay:10.37,2013-02-24 07:58:00,
2013-02-24 03:03:00,32.7,30.4,29.84,WSW,237,6.0,6.0,91,0.00,OVC,,0.00,0.0,WeatherDisplay:10.37,2013-02-24 08:03:00,
2013-02-24 03:08:00,32.7,30.4,29.84,SW,235,4.0,4.0,91,0.00,OVC,,0.00,0.0,WeatherDisplay:10.37,2013-02-24 08:08:00,
2013-02-24 03:13:00,32.7,30.4,29.85,WSW,253,3.5,3.5,91,0.00,OVC,,0.00,0.0,WeatherDisplay:10.37,2013-02-24 08:13:00,
2013-02-24 03:18:00,32.5,30.2,29.85,WNW,287,2.0,2.0,91,0.00,OVC,,0.00,0.0,WeatherDisplay:10.37,2013-02-24 08:18:00,
2013-02-24 03:23:00,32.4,30.1,29.85,SW,225,6.0,6.0,91,0.00,OVC,,0.00,0.0,WeatherDisplay:10.37,2013-02-24 08:23:00,
2013-02-24 03:28:00,32.4,29.8,29.85,WSW,258,5.8,5.8,90,0.00,OVC,,0.00,0.0,WeatherDisplay:10.37,2013-02-24 08:28:00,
2013-02-24 03:33:00,32.2,29.6,29.85,West,261,4.0,4.0,90,0.00,OVC,,0.00,0.0,WeatherDisplay:10.37,2013-02-24 08:33:00,
2013-02-24 03:38:00,32.1,29.5,29.85,SW,225,6.0,6.0,90,0.00,OVC,,0.00,0.0,WeatherDisplay:10.37,2013-02-24 08:38:00,
2013-02-24 03:43:00,31.9,29.0,29.85,West,260,5.0,5.0,89,0.00,OVC,,0.00,0.0,WeatherDisplay:10.37,2013-02-24 08:43:00,
2013-02-24 03:48:00,31.9,29.0,29.85,West,274,2.3,2.3,89,0.00,OVC,,0.00,0.0,WeatherDisplay:10.37,2013-02-24 08:48:00,
2013-02-24 03:53:00,31.9,29.0,29.85,WSW,239,3.5,3.5,89,0.00,OVC,,0.00,0.0,WeatherDisplay:10.37,2013-02-24 08:53:00,
2013-02-24 03:58:00,31.9,29.0,29.86,West,259,2.3,2.3,89,0.00,OVC,,0.00,0.0,WeatherDisplay:10.37,2013-02-24 08:58:00,
2013-02-24 04:03:00,31.9,29.0,29.86,SSW,206,4.0,4.0,89,0.00,OVC,,0.00,0.0,WeatherDisplay:10.37,2013-02-24 09:03:00,
2013-02-24 04:08:00,31.8,28.7,29.86,WSW,247,2.3,2.3,88,0.00,OVC,,0.00,0.0,WeatherDisplay:10.37,2013-02-24 09:08:00,
2013-02-24 04:13:00,31.8,28.7,29.87,WSW,248,3.5,3.5,88,0.00,OVC,,0.00,0.0,WeatherDisplay:10.37,2013-02-24 09:13:00,
2013-02-24 04:18:00,31.8,28.7,29.87,SW,216,1.1,1.1,88,0.00,OVC,,0.00,0.0,WeatherDisplay:10.37,2013-02-24 09:18:00,
2013-02-24 04:23:00,31.8,28.4,29.87,WSW,255,4.0,4.0,87,0.00,OVC,,0.00,0.0,WeatherDisplay:10.37,2013-02-24 09:23:00,
2013-02-24 04:28:00,31.8,28.4,29.87,WSW,244,4.0,4.0,87,0.00,OVC,,0.00,0.0,WeatherDisplay:10.37,2013-02-24 09:28:00,
2013-02-24 04:33:00,31.9,28.5,29.87,West,260,3.5,3.5,87,0.00,OVC,,0.00,0.0,WeatherDisplay:10.37,2013-02-24 09:33:00,
2013-02-24 04:38:00,31.9,28.5,29.87,WSW,257,4.0,4.0,87,0.00,OVC,,0.00,0.0,WeatherDisplay:10.37,2013-02-24 09:38:00,
2013-02-24 04:43:00,31.9,28.5,29.87,WSW,248,6.0,6.0,87,0.00,OVC,,0.00,0.0,WeatherDisplay:10.37,2013-02-24 09:43:00,
2013-02-24 04:48:00,31.8,28.1,29.87,West,265,4.0,4.0,86,0.00,OVC,,0.00,0.0,WeatherDisplay:10.37,2013-02-24 09:48:00,
2013-02-24 04:53:00,31.8,28.1,29.87,WSW,247,3.5,3.5,86,0.00,OVC,,0.00,0.0,WeatherDisplay:10.37,2013-02-24 09:53:00,
2013-02-24 04:58:00,31.8,28.1,29.86,WSW,251,3.5,3.5,86,0.00,OVC,,0.00,0.0,WeatherDisplay:10.37,2013-02-24 09:58:00,
2013-02-24 05:03:00,31.9,27.9,29.86,West,267,3.5,3.5,85,0.00,OVC,,0.00,0.0,WeatherDisplay:10.37,2013-02-24 10:03:00,
2013-02-24 05:08:00,31.9,27.9,29.86,West,268,3.5,3.5,85,0.00,OVC,,0.00,0.0,WeatherDisplay:10.37,2013-02-24 10:08:00,
2013-02-24 05:13:00,32.1,28.1,29.86,West,267,2.3,0.0,85,0.00,OVC,,0.00,0.0,WeatherDisplay:10.37,2013-02-24 10:13:00,
2013-02-24 05:18:00,32.1,28.1,29.86,West,267,2.3,2.3,85,0.00,OVC,,0.00,0.0,WeatherDisplay:10.37,2013-02-24 10:18:00,
2013-02-24 05:23:00,32.1,28.1,29.86,West,267,1.1,1.1,85,0.00,OVC,,0.00,0.0,WeatherDisplay:10.37,2013-02-24 10:23:00,
2013-02-24 05:28:00,32.1,28.1,29.86,West,267,0.0,0.0,85,0.00,OVC,,0.00,0.0,WeatherDisplay:10.37,2013-02-24 10:28:00,
2013-02-24 05:33:00,32.1,28.1,29.86,West,267,0.0,0.0,85,0.00,OVC,,0.00,0.0,WeatherDisplay:10.37,2013-02-24 10:33:00,
2013-02-24 05:38:00,32.1,28.1,29.86,West,267,0.0,0.0,85,0.00,OVC,,0.00,0.0,WeatherDisplay:10.37,2013-02-24 10:38:00,
2013-02-24 05:43:00,32.1,28.1,29.86,West,267,0.0,0.0,85,0.00,OVC,,0.00,0.0,WeatherDisplay:10.37,2013-02-24 10:43:00,
2013-02-24 05:48:00,32.1,28.1,29.86,West,267,0.0,0.0,85,0.00,OVC,,0.00,0.0,WeatherDisplay:10.37,2013-02-24 10:48:00,
2013-02-24 05:53:00,32.2,28.2,29.86,West,267,0.0,0.0,85,0.00,OVC,,0.00,0.0,WeatherDisplay:10.37,2013-02-24 10:53:00,
2013-02-24 05:58:00,32.2,28.2,29.86,West,267,0.0,0.0,85,0.00,OVC,,0.00,0.0,WeatherDisplay:10.37,2013-02-24 10:58:00,
2013-02-24 06:03:00,32.2,28.2,29.86,West,267,0.0,0.0,85,0.00,OVC,,0.00,0.0,WeatherDisplay:10.37,2013-02-24 11:03:00,
2013-02-24 06:08:00,32.2,28.2,29.86,West,267,0.0,0.0,85,0.00,OVC,,0.00,0.0,WeatherDisplay:10.37,2013-02-24 11:08:00,
2013-02-24 06:13:00,32.2,28.2,29.86,West,267,0.0,0.0,85,0.00,OVC,,0.00,0.0,WeatherDisplay:10.37,2013-02-24 11:13:00,
2013-02-24 06:18:00,32.1,28.4,29.86,West,267,0.0,0.0,86,0.00,OVC,,0.00,0.0,WeatherDisplay:10.37,2013-02-24 11:18:00,
2013-02-24 06:23:00,31.9,28.2,29.86,West,267,0.0,0.0,86,0.00,OVC,,0.00,0.0,WeatherDisplay:10.37,2013-02-24 11:23:00,
2013-02-24 06:28:00,31.8,28.1,29.86,West,267,0.0,0.0,86,0.00,OVC,,0.00,0.0,WeatherDisplay:10.37,2013-02-24 11:28:00,
2013-02-24 06:33:00,31.8,28.4,29.86,West,267,0.0,0.0,87,0.00,OVC,,0.00,0.0,WeatherDisplay:10.37,2013-02-24 11:33:00,
2013-02-24 06:38:00,31.8,28.4,29.86,West,267,1.0,1.0,87,0.00,OVC,,0.00,0.0,WeatherDisplay:10.37,2013-02-24 11:38:00,
2013-02-24 06:43:00,31.8,28.4,29.86,West,267,1.1,1.1,87,0.00,OVC,,0.00,0.0,WeatherDisplay:10.37,2013-02-24 11:43:00,
2013-02-24 06:48:00,31.8,28.4,29.86,West,267,1.1,0.0,87,0.00,OVC,,0.00,0.0,WeatherDisplay:10.37,2013-02-24 11:48:00,
2013-02-24 06:53:00,31.8,28.1,29.86,West,267,2.3,2.3,86,0.00,OVC,,0.00,0.0,WeatherDisplay:10.37,2013-02-24 11:53:00,
2013-02-24 06:58:00,32.1,28.4,29.86,West,267,0.0,0.0,86,0.00,OVC,,0.00,0.0,WeatherDisplay:10.37,2013-02-24 11:58:00,
2013-02-24 07:03:00,32.1,28.4,29.86,West,267,0.0,0.0,86,0.00,OVC,,0.00,5.0,WeatherDisplay:10.37,2013-02-24 12:03:00,
2013-02-24 07:08:00,32.1,28.4,29.86,West,267,0.0,0.0,86,0.00,OVC,,0.00,9.0,WeatherDisplay:10.37,2013-02-24 12:08:00,
2013-02-24 07:13:00,32.1,28.7,29.87,West,267,2.3,2.3,87,0.00,OVC,,0.00,12.0,WeatherDisplay:10.37,2013-02-24 12:13:00,
2013-02-24 07:18:00,32.2,28.5,29.87,West,267,2.3,2.3,86,0.00,OVC,,0.00,18.0,WeatherDisplay:10.37,2013-02-24 12:18:00,
2013-02-24 07:23:00,32.2,28.8,29.87,West,267,0.0,0.0,87,0.00,OVC,,0.00,23.0,WeatherDisplay:10.37,2013-02-24 12:23:00,
2013-02-24 07:28:00,32.4,28.7,29.88,West,267,1.1,0.0,86,0.00,OVC,,0.00,23.0,WeatherDisplay:10.37,2013-02-24 12:28:00,
2013-02-24 07:33:00,32.4,28.7,29.88,West,267,0.0,0.0,86,0.00,OVC,,0.00,23.0,WeatherDisplay:10.37,2013-02-24 12:33:00,
2013-02-24 07:38:00,32.5,28.8,29.88,West,267,2.0,2.0,86,0.00,OVC,,0.00,25.0,WeatherDisplay:10.37,2013-02-24 12:38:00,
2013-02-24 07:43:00,32.5,28.5,29.88,West,267,0.0,0.0,85,0.00,OVC,,0.00,32.0,WeatherDisplay:10.37,2013-02-24 12:43:00,
2013-02-24 07:48:00,32.7,28.7,29.88,West,267,1.1,0.0,85,0.00,OVC,,0.00,39.0,WeatherDisplay:10.37,2013-02-24 12:48:00,
2013-02-24 07:53:00,32.8,28.5,29.88,West,267,2.3,2.3,84,0.00,OVC,,0.00,44.0,WeatherDisplay:10.37,2013-02-24 12:53:00,
2013-02-24 07:58:00,32.8,28.2,29.88,West,267,1.1,0.0,83,0.00,OVC,,0.00,56.0,WeatherDisplay:10.37,2013-02-24 12:58:00,
2013-02-24 08:03:00,32.9,28.3,29.88,West,261,3.5,3.5,83,0.00,OVC,,0.00,58.0,WeatherDisplay:10.37,2013-02-24 13:03:00,
2013-02-24 08:08:00,32.9,28.0,29.88,WSW,248,2.0,2.0,82,0.00,OVC,,0.00,54.0,WeatherDisplay:10.37,2013-02-24 13:08:00,
2013-02-24 08:13:00,33.1,28.2,29.88,WNW,286,4.6,4.6,82,0.00,OVC,,0.00,49.0,WeatherDisplay:10.37,2013-02-24 13:13:00,
2013-02-24 08:18:00,32.9,27.7,29.88,WSW,250,3.5,3.5,81,0.00,OVC,,0.00,51.0,WeatherDisplay:10.37,2013-02-24 13:18:00,
2013-02-24 08:23:00,32.8,27.3,29.88,SW,233,6.0,6.0,80,0.00,OVC,,0.00,54.0,WeatherDisplay:10.37,2013-02-24 13:23:00,
2013-02-24 08:28:00,32.8,27.3,29.87,West,270,3.5,0.0,80,0.00,OVC,,0.00,44.0,WeatherDisplay:10.37,2013-02-24 13:28:00,
2013-02-24 08:33:00,32.8,27.3,29.87,West,279,1.1,0.0,80,0.00,OVC,,0.00,51.0,WeatherDisplay:10.37,2013-02-24 13:33:00,
2013-02-24 08:38:00,32.8,27.0,29.87,NW,315,7.0,7.0,79,0.00,OVC,,0.00,63.0,WeatherDisplay:10.37,2013-02-24 13:38:00,
2013-02-24 08:43:00,32.8,27.0,29.87,WNW,284,4.0,4.0,79,0.00,OVC,,0.00,65.0,WeatherDisplay:10.37,2013-02-24 13:43:00,
2013-02-24 08:48:00,32.8,26.7,29.87,West,277,7.0,7.0,78,0.00,OVC,,0.00,60.0,WeatherDisplay:10.37,2013-02-24 13:48:00,
2013-02-24 08:53:00,32.8,26.7,29.87,WNW,289,3.5,3.5,78,0.00,OVC,,0.00,54.0,WeatherDisplay:10.37,2013-02-24 13:53:00,
2013-02-24 08:58:00,32.7,26.6,29.87,West,279,3.5,0.0,78,0.00,OVC,,0.00,49.0,WeatherDisplay:10.37,2013-02-24 13:58:00,
2013-02-24 09:03:00,32.7,26.3,29.87,West,260,5.0,5.0,77,0.00,OVC,,0.00,54.0,WeatherDisplay:10.37,2013-02-24 14:03:00,
2013-02-24 09:08:00,32.7,26.3,29.87,WNW,286,3.5,3.5,77,0.00,OVC,,0.00,56.0,WeatherDisplay:10.37,2013-02-24 14:08:00,
2013-02-24 09:13:00,32.8,26.4,29.87,West,269,6.0,6.0,77,0.00,OVC,,0.00,62.0,WeatherDisplay:10.37,2013-02-24 14:13:00,
2013-02-24 09:19:00,32.7,26.3,29.87,WNW,296,4.0,4.0,77,0.00,OVC,,0.00,81.0,WeatherDisplay:10.37,2013-02-24 14:19:00,
2013-02-24 09:24:00,32.7,26.0,29.87,West,277,5.0,5.0,76,0.00,OVC,,0.00,95.0,WeatherDisplay:10.37,2013-02-24 14:24:00,
2013-02-24 09:29:00,32.8,26.1,29.87,West,279,9.2,9.2,76,0.00,OVC,,0.00,113.0,WeatherDisplay:10.37,2013-02-24 14:29:00,
2013-02-24 09:34:00,32.9,26.2,29.87,West,273,5.8,5.8,76,0.00,OVC,,0.00,100.0,WeatherDisplay:10.37,2013-02-24 14:34:00,
2013-02-24 09:39:00,32.9,25.8,29.87,WNW,292,8.0,8.0,75,0.00,OVC,,0.00,102.0,WeatherDisplay:10.37,2013-02-24 14:39:00,
2013-02-24 09:44:00,32.9,25.8,29.87,West,262,9.2,9.2,75,0.00,OVC,,0.00,116.0,WeatherDisplay:10.37,2013-02-24 14:44:00,
2013-02-24 09:49:00,32.9,25.8,29.87,NW,315,14.0,14.0,75,0.00,OVC,,0.00,121.0,WeatherDisplay:10.37,2013-02-24 14:49:00,
2013-02-24 09:54:00,32.9,25.5,29.87,WNW,284,10.0,10.0,74,0.00,OVC,,0.00,113.0,WeatherDisplay:10.37,2013-02-24 14:54:00,
2013-02-24 09:59:00,33.1,25.7,29.87,NW,305,11.0,11.0,74,0.00,OVC,,0.00,123.0,WeatherDisplay:10.37,2013-02-24 14:59:00,
2013-02-24 10:04:00,33.1,25.4,29.87,West,267,11.5,11.5,73,0.00,OVC,,0.00,125.0,WeatherDisplay:10.37,2013-02-24 15:04:00,
2013-02-24 10:09:00,33.1,25.4,29.87,West,260,11.5,11.5,73,0.00,OVC,,0.00,118.0,WeatherDisplay:10.37,2013-02-24 15:09:00,
2013-02-24 10:14:00,32.8,24.8,29.87,WSW,253,14.0,14.0,72,0.00,OVC,,0.00,118.0,WeatherDisplay:10.37,2013-02-24 15:14:00,
2013-02-24 10:19:00,32.8,24.8,29.87,WSW,255,6.0,6.0,72,0.00,OVC,,0.00,121.0,WeatherDisplay:10.37,2013-02-24 15:19:00,
2013-02-24 10:24:00,32.8,24.8,29.87,WNW,293,7.0,7.0,72,0.00,OVC,,0.00,135.0,WeatherDisplay:10.37,2013-02-24 15:24:00,
2013-02-24 10:29:00,32.9,25.2,29.87,WSW,238,10.4,10.4,73,0.00,OVC,,0.00,111.0,WeatherDisplay:10.37,2013-02-24 15:29:00,
2013-02-24 10:34:00,32.8,24.8,29.87,West,281,14.0,14.0,72,0.00,OVC,,0.00,121.0,WeatherDisplay:10.37,2013-02-24 15:34:00,
2013-02-24 10:39:00,32.8,24.8,29.87,WNW,283,6.0,6.0,72,0.00,OVC,,0.00,162.0,WeatherDisplay:10.37,2013-02-24 15:39:00,
2013-02-24 10:44:00,33.1,24.7,29.87,West,281,7.0,7.0,71,0.00,OVC,,0.00,176.0,WeatherDisplay:10.37,2013-02-24 15:44:00,
2013-02-24 10:49:00,33.2,24.5,29.87,WSW,237,7.0,7.0,70,0.00,OVC,,0.00,155.0,WeatherDisplay:10.37,2013-02-24 15:49:00,
2013-02-24 10:54:00,33.2,24.1,29.87,WNW,292,6.0,6.0,69,0.00,OVC,,0.00,151.0,WeatherDisplay:10.37,2013-02-24 15:54:00,
2013-02-24 10:59:00,33.1,24.0,29.87,WSW,255,11.5,11.5,69,0.00,OVC,,0.00,172.0,WeatherDisplay:10.37,2013-02-24 15:59:00,
2013-02-24 11:04:00,33.1,24.0,29.87,West,265,17.3,17.3,69,0.00,OVC,,0.00,160.0,WeatherDisplay:10.37,2013-02-24 16:04:00,
2013-02-24 11:09:00,33.1,24.0,29.87,WNW,296,5.0,5.0,69,0.00,OVC,,0.00,149.0,WeatherDisplay:10.37,2013-02-24 16:09:00,
2013-02-24 11:14:00,33.1,24.0,29.87,West,260,6.0,6.0,69,0.00,OVC,,0.00,148.0,WeatherDisplay:10.37,2013-02-24 16:14:00,
2013-02-24 11:19:00,33.1,24.0,29.87,WNW,302,7.0,7.0,69,0.00,OVC,,0.00,156.0,WeatherDisplay:10.37,2013-02-24 16:19:00,
2013-02-24 11:24:00,33.1,24.0,29.87,WSW,252,11.5,11.5,69,0.00,OVC,,0.00,176.0,WeatherDisplay:10.37,2013-02-24 16:24:00,
2013-02-24 11:29:00,33.2,24.1,29.88,NW,319,11.5,11.5,69,0.00,OVC,,0.00,185.0,WeatherDisplay:10.37,2013-02-24 16:29:00,
2013-02-24 11:34:00,33.2,24.1,29.88,WNW,293,9.0,9.0,69,0.00,OVC,,0.00,190.0,WeatherDisplay:10.37,2013-02-24 16:34:00,
2013-02-24 11:39:00,33.4,24.3,29.88,West,267,8.1,8.1,69,0.00,OVC,,0.00,206.0,WeatherDisplay:10.37,2013-02-24 16:39:00,
2013-02-24 11:44:00,33.7,24.6,29.87,WSW,241,8.1,8.1,69,0.00,OVC,,0.00,209.0,WeatherDisplay:10.37,2013-02-24 16:44:00,
2013-02-24 11:49:00,34.0,24.9,29.87,West,279,6.0,6.0,69,0.00,OVC,,0.00,185.0,WeatherDisplay:10.37,2013-02-24 16:49:00,
2013-02-24 11:54:00,34.3,25.2,29.87,WNW,284,9.0,9.0,69,0.00,OVC,,0.00,236.0,WeatherDisplay:10.37,2013-02-24 16:54:00,
2013-02-24 11:59:00,34.3,24.8,29.87,NW,306,6.0,6.0,68,0.00,OVC,,0.00,274.0,WeatherDisplay:10.37,2013-02-24 16:59:00,
2013-02-24 12:04:00,34.4,24.9,29.87,West,267,11.5,11.5,68,0.00,OVC,,0.00,234.0,WeatherDisplay:10.37,2013-02-24 17:04:00,
2013-02-24 12:09:00,34.3,24.5,29.87,NW,307,11.5,11.5,67,0.00,OVC,,0.00,272.0,WeatherDisplay:10.37,2013-02-24 17:09:00,
2013-02-24 12:14:00,34.4,24.9,29.87,WSW,246,11.0,11.0,68,0.00,OVC,,0.00,339.0,WeatherDisplay:10.37,2013-02-24 17:14:00,
2013-02-24 12:19:00,34.9,25.0,29.87,WNW,289,11.0,11.0,67,0.00,OVC,,0.00,306.0,WeatherDisplay:10.37,2013-02-24 17:19:00,
2013-02-24 12:24:00,35.3,25.1,29.87,West,272,11.0,11.0,66,0.00,OVC,,0.00,176.0,WeatherDisplay:10.37,2013-02-24 17:24:00,
2013-02-24 12:29:00,35.0,24.0,29.87,WNW,300,12.0,12.0,64,0.00,OVC,,0.00,123.0,WeatherDisplay:10.37,2013-02-24 17:29:00,
2013-02-24 12:34:00,34.4,23.5,29.87,WNW,298,5.8,5.8,64,0.00,OVC,,0.00,97.0,WeatherDisplay:10.37,2013-02-24 17:34:00,
2013-02-24 12:39:00,34.1,23.6,29.87,WNW,300,14.0,14.0,65,0.00,OVC,,0.00,104.0,WeatherDisplay:10.37,2013-02-24 17:39:00,
2013-02-24 12:44:00,33.7,23.9,29.87,WNW,284,10.0,10.0,67,0.00,OVC,,0.00,105.0,WeatherDisplay:10.37,2013-02-24 17:44:00,
2013-02-24 12:49:00,33.5,24.1,29.87,West,260,7.0,7.0,68,0.00,OVC,,0.00,128.0,WeatherDisplay:10.37,2013-02-24 17:49:00,
2013-02-24 12:54:00,33.5,24.1,29.87,WSW,251,11.5,11.5,68,0.00,OVC,,0.00,130.0,WeatherDisplay:10.37,2013-02-24 17:54:00,
2013-02-24 12:59:00,33.4,24.0,29.87,West,271,13.0,13.0,68,0.00,OVC,,0.00,120.0,WeatherDisplay:10.37,2013-02-24 17:59:00,
2013-02-24 13:04:00,33.4,24.0,29.87,SW,230,10.0,10.0,68,0.00,OVC,,0.00,121.0,WeatherDisplay:10.37,2013-02-24 18:04:00,
2013-02-24 13:09:00,33.2,23.8,29.87,WSW,248,7.0,7.0,68,0.00,OVC,,0.00,93.0,WeatherDisplay:10.37,2013-02-24 18:09:00,
2013-02-24 13:14:00,33.1,24.0,29.88,NW,315,5.8,5.8,69,0.00,OVC,,0.00,100.0,WeatherDisplay:10.37,2013-02-24 18:14:00,
2013-02-24 13:19:00,33.1,24.0,29.88,WNW,296,10.4,10.4,69,0.00,OVC,,0.00,118.0,WeatherDisplay:10.37,2013-02-24 18:19:00,
2013-02-24 13:24:00,33.1,24.4,29.88,West,266,12.0,12.0,70,0.00,OVC,,0.00,142.0,WeatherDisplay:10.37,2013-02-24 18:24:00,
2013-02-24 13:29:00,33.1,24.4,29.88,West,259,13.0,13.0,70,0.00,OVC,,0.00,144.0,WeatherDisplay:10.37,2013-02-24 18:29:00,
2013-02-24 13:34:00,33.1,24.4,29.88,West,281,9.2,9.2,70,0.00,OVC,,0.00,155.0,WeatherDisplay:10.37,2013-02-24 18:34:00,
2013-02-24 13:39:00,33.1,24.7,29.88,WNW,303,10.4,10.4,71,0.00,OVC,,0.00,179.0,WeatherDisplay:10.37,2013-02-24 18:39:00,
2013-02-24 13:44:00,33.1,24.7,29.88,West,272,4.0,4.0,71,0.00,OVC,,0.00,207.0,WeatherDisplay:10.37,2013-02-24 18:44:00,
2013-02-24 13:49:00,33.4,25.3,29.88,WSW,244,11.5,11.5,72,0.00,OVC,,0.00,171.0,WeatherDisplay:10.37,2013-02-24 18:49:00,
2013-02-24 13:54:00,33.4,25.7,29.88,WNW,286,6.0,6.0,73,0.00,OVC,,0.00,135.0,WeatherDisplay:10.37,2013-02-24 18:54:00,
2013-02-24 13:59:00,33.1,25.7,29.88,West,263,6.0,6.0,74,0.00,OVC,,0.00,123.0,WeatherDisplay:10.37,2013-02-24 18:59:00,
2013-02-24 14:04:00,32.8,25.7,29.88,West,275,9.2,9.2,75,0.00,-SN,,0.00,134.0,WeatherDisplay:10.37,2013-02-24 19:04:00,
2013-02-24 14:09:00,32.7,26.0,29.88,West,261,9.0,9.0,76,0.00,-SN,,0.00,134.0,WeatherDisplay:10.37,2013-02-24 19:09:00,
2013-02-24 14:14:00,32.7,26.0,29.88,WSW,254,10.4,10.4,76,0.00,-SN,,0.00,125.0,WeatherDisplay:10.37,2013-02-24 19:14:00,
2013-02-24 14:19:00,32.5,26.1,29.88,West,269,7.0,7.0,77,0.00,-SN,,0.00,123.0,WeatherDisplay:10.37,2013-02-24 19:19:00,
2013-02-24 14:24:00,32.4,26.3,29.88,WSW,244,2.3,2.3,78,0.00,-SN,,0.00,127.0,WeatherDisplay:10.37,2013-02-24 19:24:00,
2013-02-24 14:29:00,32.4,26.3,29.89,SW,235,6.0,6.0,78,0.00,-SN,,0.00,151.0,WeatherDisplay:10.37,2013-02-24 19:29:00,
2013-02-24 14:34:00,32.4,26.3,29.89,NW,316,11.5,11.5,78,0.00,-SN,,0.00,197.0,WeatherDisplay:10.37,2013-02-24 19:34:00,
2013-02-24 14:39:00,32.7,26.6,29.89,West,281,11.0,11.0,78,0.00,-SN,,0.00,169.0,WeatherDisplay:10.37,2013-02-24 19:39:00,
2013-02-24 14:44:00,32.8,26.7,29.89,NW,314,11.5,11.5,78,0.00,-SN,,0.00,160.0,WeatherDisplay:10.37,2013-02-24 19:44:00,
2013-02-24 14:49:00,32.7,26.9,29.89,WSW,255,7.0,7.0,79,0.00,-SN,,0.00,158.0,WeatherDisplay:10.37,2013-02-24 19:49:00,
2013-02-24 14:54:00,32.5,27.3,29.89,WNW,291,5.0,5.0,81,0.00,-SN,,0.00,137.0,WeatherDisplay:10.37,2013-02-24 19:54:00,
2013-02-24 14:59:00,32.4,27.5,29.89,SW,217,11.5,11.5,82,0.00,-SN,,0.00,128.0,WeatherDisplay:10.37,2013-02-24 19:59:00,
2013-02-24 15:04:00,32.1,27.2,29.89,West,277,2.3,2.3,82,0.01,-SN,,0.01,130.0,WeatherDisplay:10.37,2013-02-24 20:04:00,
2013-02-24 15:09:00,32.1,27.5,29.89,WSW,239,1.0,1.0,83,0.01,-SN,,0.01,134.0,WeatherDisplay:10.37,2013-02-24 20:09:00,
2013-02-24 15:14:00,32.2,27.9,29.89,SW,222,7.0,7.0,84,0.01,-SN,,0.01,132.0,WeatherDisplay:10.37,2013-02-24 20:14:00,
2013-02-24 15:19:00,32.1,27.8,29.89,West,272,3.5,3.5,84,0.01,-SN,,0.01,107.0,WeatherDisplay:10.37,2013-02-24 20:19:00,
2013-02-24 15:24:00,32.2,27.9,29.89,West,269,10.0,10.0,84,0.01,-SN,,0.01,97.0,WeatherDisplay:10.37,2013-02-24 20:24:00,
2013-02-24 15:29:00,31.9,27.6,29.90,WNW,282,6.0,6.0,84,0.01,-SN,,0.01,97.0,WeatherDisplay:10.37,2013-02-24 20:29:00,
2013-02-24 15:34:00,31.9,27.6,29.90,West,273,6.0,6.0,84,0.02,-SN,,0.02,116.0,WeatherDisplay:10.37,2013-02-24 20:34:00,
2013-02-24 15:39:00,31.9,27.9,29.90,NW,318,7.0,7.0,85,0.02,-SN,,0.02,144.0,WeatherDisplay:10.37,2013-02-24 20:39:00,
2013-02-24 15:44:00,31.9,27.9,29.90,West,279,6.9,6.9,85,0.02,-SN,,0.02,137.0,WeatherDisplay:10.37,2013-02-24 20:44:00,
2013-02-24 15:49:00,31.9,27.9,29.90,WSW,240,14.0,14.0,85,0.02,-SN,,0.02,111.0,WeatherDisplay:10.37,2013-02-24 20:49:00,
2013-02-24 15:54:00,31.6,27.6,29.90,WSW,237,10.4,10.4,85,0.02,-SN,,0.02,81.0,WeatherDisplay:10.37,2013-02-24 20:54:00,
2013-02-24 15:59:00,31.5,27.5,29.91,WNW,300,3.5,3.5,85,0.01,-SN,,0.02,72.0,WeatherDisplay:10.37,2013-02-24 20:59:00,
2013-02-24 16:04:00,31.3,27.6,29.91,West,260,5.8,5.8,86,0.01,-SN,,0.02,51.0,WeatherDisplay:10.37,2013-02-24 21:04:00,
2013-02-24 16:09:00,31.3,27.6,29.91,West,265,9.2,9.2,86,0.02,-SN,,0.03,47.0,WeatherDisplay:10.37,2013-02-24 21:09:00,
2013-02-24 16:14:00,31.3,27.6,29.91,WSW,255,9.2,9.2,86,0.02,-SN,,0.03,35.0,WeatherDisplay:10.37,2013-02-24 21:14:00,
2013-02-24 16:19:00,31.2,27.5,29.91,West,273,5.8,5.8,86,0.02,-SN,,0.03,33.0,WeatherDisplay:10.37,2013-02-24 21:19:00,
2013-02-24 16:24:00,31.0,27.3,29.91,SSW,208,6.0,6.0,86,0.02,-SN,,0.03,32.0,WeatherDisplay:10.37,2013-02-24 21:24:00,
2013-02-24 16:29:00,31.0,27.6,29.91,West,260,12.7,12.7,87,0.02,-SN,,0.03,25.0,WeatherDisplay:10.37,2013-02-24 21:29:00,
2013-02-24 16:34:00,30.7,27.3,29.91,SW,232,15.0,15.0,87,0.01,-SN,,0.03,28.0,WeatherDisplay:10.37,2013-02-24 21:34:00,
2013-02-24 16:39:00,30.6,27.2,29.91,NW,304,13.0,13.0,87,0.01,-SN,,0.03,33.0,WeatherDisplay:10.37,2013-02-24 21:39:00,
2013-02-24 16:44:00,30.6,27.2,29.91,WNW,286,11.0,11.0,87,0.01,-SN,,0.03,37.0,WeatherDisplay:10.37,2013-02-24 21:44:00,
2013-02-24 16:49:00,30.6,27.5,29.91,West,267,15.0,15.0,88,0.01,-SN,,0.03,49.0,WeatherDisplay:10.37,2013-02-24 21:49:00,
2013-02-24 16:54:00,30.7,27.6,29.91,NW,307,10.0,10.0,88,0.01,-SN,,0.03,37.0,WeatherDisplay:10.37,2013-02-24 21:54:00,
2013-02-24 16:59:00,30.7,27.6,29.92,WSW,257,6.0,6.0,88,0.01,-SN,,0.03,28.0,WeatherDisplay:10.37,2013-02-24 21:59:00,
2013-02-24 17:04:00,30.9,27.8,29.92,West,280,10.4,10.4,88,0.02,-SN,,0.04,19.0,WeatherDisplay:10.37,2013-02-24 22:04:00,
2013-02-24 17:09:00,30.7,27.6,29.92,WNW,288,13.0,13.0,88,0.01,-SN,,0.04,16.0,WeatherDisplay:10.37,2013-02-24 22:09:00,
2013-02-24 17:14:00,30.6,27.5,29.93,WSW,255,10.4,10.4,88,0.01,-SN,,0.04,21.0,WeatherDisplay:10.37,2013-02-24 22:14:00,
2013-02-24 17:19:00,30.3,27.2,29.93,WNW,302,14.0,14.0,88,0.01,-SN,,0.04,23.0,WeatherDisplay:10.37,2013-02-24 22:19:00,
2013-02-24 17:24:00,30.1,27.0,29.93,WSW,255,7.0,7.0,88,0.01,-SN,,0.04,19.0,WeatherDisplay:10.37,2013-02-24 22:24:00,
2013-02-24 17:29:00,30.1,27.3,29.94,SSW,211,10.4,10.4,89,0.01,-SN,,0.04,14.0,WeatherDisplay:10.37,2013-02-24 22:29:00,
2013-02-24 17:34:00,30.0,27.2,29.94,WNW,302,11.5,11.5,89,0.01,-SN,,0.04,14.0,WeatherDisplay:10.37,2013-02-24 22:34:00,
2013-02-24 17:39:00,30.0,27.2,29.94,WNW,284,10.4,10.4,89,0.01,-SN,,0.04,9.0,WeatherDisplay:10.37,2013-02-24 22:39:00,
2013-02-24 17:44:00,29.8,27.0,29.95,WSW,251,6.0,6.0,89,0.01,-SN,,0.04,5.0,WeatherDisplay:10.37,2013-02-24 22:44:00,
2013-02-24 17:49:00,29.8,27.0,29.95,WSW,257,12.0,12.0,89,0.01,-SN,,0.04,0.0,WeatherDisplay:10.37,2013-02-24 22:49:00,
2013-02-24 17:54:00,29.8,27.0,29.95,WNW,291,5.8,5.8,89,0.01,-SN,,0.04,0.0,WeatherDisplay:10.37,2013-02-24 22:54:00,
2013-02-24 17:59:00,29.7,26.9,29.95,West,260,6.9,6.9,89,0.01,-SN,,0.04,0.0,WeatherDisplay:10.37,2013-02-24 22:59:00,
2013-02-24 18:04:00,29.7,26.9,29.95,West,260,7.0,7.0,89,0.00,OVC,,0.04,0.0,WeatherDisplay:10.37,2013-02-24 23:04:00,
2013-02-24 18:09:00,29.5,26.7,29.95,West,263,7.0,7.0,89,0.00,OVC,,0.04,0.0,WeatherDisplay:10.37,2013-02-24 23:09:00,
2013-02-24 18:14:00,29.5,26.7,29.97,West,269,7.0,7.0,89,0.00,OVC,,0.04,0.0,WeatherDisplay:10.37,2013-02-24 23:14:00,
2013-02-24 18:19:00,29.4,26.6,29.97,West,270,9.2,9.2,89,0.00,OVC,,0.04,0.0,WeatherDisplay:10.37,2013-02-24 23:19:00,
2013-02-24 18:24:00,29.4,26.6,29.97,SW,236,7.0,7.0,89,0.00,OVC,,0.04,0.0,WeatherDisplay:10.37,2013-02-24 23:24:00,
2013-02-24 18:29:00,29.4,26.6,29.97,WSW,244,10.4,10.4,89,0.00,OVC,,0.04,0.0,WeatherDisplay:10.37,2013-02-24 23:29:00,
2013-02-24 18:34:00,29.5,26.9,29.97,SW,229,5.8,5.8,90,0.00,OVC,,0.04,0.0,WeatherDisplay:10.37,2013-02-24 23:34:00,
2013-02-24 18:39:00,29.5,26.7,29.97,WSW,258,11.5,11.5,89,0.00,OVC,,0.04,0.0,WeatherDisplay:10.37,2013-02-24 23:39:00,
2013-02-24 18:44:00,29.3,26.5,29.98,WSW,254,7.0,7.0,89,0.00,BKN,,0.04,0.0,WeatherDisplay:10.37,2013-02-24 23:44:00,
2013-02-24 18:49:00,29.3,26.5,29.98,WNW,297,6.9,6.9,89,0.00,BKN,,0.04,0.0,WeatherDisplay:10.37,2013-02-24 23:49:00,
2013-02-24 18:54:00,29.3,26.7,29.98,West,267,6.0,6.0,90,0.00,BKN,,0.04,0.0,WeatherDisplay:10.37,2013-02-24 23:54:00,
2013-02-24 18:59:00,29.4,26.8,29.99,West,274,7.0,7.0,90,0.00,BKN,,0.04,0.0,WeatherDisplay:10.37,2013-02-24 23:59:00,
2013-02-24 19:04:00,29.5,26.9,29.99,WSW,255,4.0,4.0,90,0.00,-SN,,0.04,0.0,WeatherDisplay:10.37,2013-02-25 00:04:00,
2013-02-24 19:09:00,29.5,26.9,29.99,SW,235,5.8,5.8,90,0.00,-SN,,0.04,0.0,WeatherDisplay:10.37,2013-02-25 00:09:00,
2013-02-24 19:14:00,29.4,26.8,29.99,WSW,238,4.6,4.6,90,0.00,-SN,,0.04,0.0,WeatherDisplay:10.37,2013-02-25 00:14:00,
2013-02-24 19:19:00,29.4,26.8,29.99,SW,235,6.0,6.0,90,0.00,-SN,,0.04,0.0,WeatherDisplay:10.37,2013-02-25 00:19:00,
2013-02-24 19:24:00,29.3,26.7,29.99,SW,230,5.0,5.0,90,0.00,-SN,,0.04,0.0,WeatherDisplay:10.37,2013-02-25 00:24:00,
2013-02-24 19:29:00,29.3,26.7,29.99,West,277,4.6,4.6,90,0.00,-SN,,0.04,0.0,WeatherDisplay:10.37,2013-02-25 00:29:00,
2013-02-24 19:34:00,29.1,26.5,29.99,WNW,286,3.5,3.5,90,0.00,-SN,,0.04,0.0,WeatherDisplay:10.37,2013-02-25 00:34:00,
2013-02-24 19:39:00,29.1,26.5,29.99,West,273,4.0,4.0,90,0.00,-SN,,0.04,0.0,WeatherDisplay:10.37,2013-02-25 00:39:00,
2013-02-24 19:44:00,29.3,26.7,29.99,West,261,11.5,11.5,90,0.00,OVC,,0.04,0.0,WeatherDisplay:10.37,2013-02-25 00:44:00,
2013-02-24 19:49:00,29.3,26.7,29.99,WNW,284,6.0,6.0,90,0.00,OVC,,0.04,0.0,WeatherDisplay:10.37,2013-02-25 00:49:00,
2013-02-24 19:54:00,29.1,26.5,29.99,SW,227,7.0,7.0,90,0.00,OVC,,0.04,0.0,WeatherDisplay:10.37,2013-02-25 00:54:00,
2013-02-24 19:59:00,29.3,26.7,30.00,West,272,6.0,6.0,90,0.00,OVC,,0.04,0.0,WeatherDisplay:10.37,2013-02-25 00:59:00,
2013-02-24 20:04:00,29.3,26.7,30.00,SW,226,6.0,6.0,90,0.00,OVC,,0.04,0.0,WeatherDisplay:10.37,2013-02-25 01:04:00,
2013-02-24 20:09:00,29.4,26.8,30.00,SW,236,6.0,6.0,90,0.00,OVC,,0.04,0.0,WeatherDisplay:10.37,2013-02-25 01:09:00,
2013-02-24 20:14:00,29.4,26.8,30.00,SW,222,9.2,9.2,90,0.00,OVC,,0.04,0.0,WeatherDisplay:10.37,2013-02-25 01:14:00,
2013-02-24 20:19:00,29.4,26.8,30.00,WNW,282,9.2,9.2,90,0.00,OVC,,0.04,0.0,WeatherDisplay:10.37,2013-02-25 01:19:00,
2013-02-24 20:24:00,29.5,26.9,30.00,SW,225,10.0,10.0,90,0.00,OVC,,0.04,0.0,WeatherDisplay:10.37,2013-02-25 01:24:00,
2013-02-24 20:29:00,29.5,26.7,30.01,West,281,3.5,3.5,89,0.00,OVC,,0.04,0.0,WeatherDisplay:10.37,2013-02-25 01:29:00,
2013-02-24 20:34:00,29.5,26.7,30.01,SW,220,6.0,6.0,89,0.00,OVC,,0.04,0.0,WeatherDisplay:10.37,2013-02-25 01:34:00,
2013-02-24 20:39:00,29.5,26.7,30.01,WSW,243,6.0,6.0,89,0.00,OVC,,0.04,0.0,WeatherDisplay:10.37,2013-02-25 01:39:00,
2013-02-24 20:44:00,29.5,26.7,30.02,WSW,244,9.2,9.2,89,0.00,OVC,,0.04,0.0,WeatherDisplay:10.37,2013-02-25 01:44:00,
2013-02-24 20:49:00,29.7,26.9,30.02,SW,235,1.1,0.0,89,0.00,OVC,,0.04,0.0,WeatherDisplay:10.37,2013-02-25 01:49:00,
2013-02-24 20:54:00,29.7,26.9,30.02,WSW,246,3.5,3.5,89,0.00,OVC,,0.04,0.0,WeatherDisplay:10.37,2013-02-25 01:54:00,
2013-02-24 20:59:00,29.7,26.9,30.02,WSW,250,6.0,6.0,89,0.00,OVC,,0.04,0.0,WeatherDisplay:10.37,2013-02-25 01:59:00,
2013-02-24 21:04:00,29.7,26.9,30.02,WSW,253,7.0,7.0,89,0.00,OVC,,0.04,0.0,WeatherDisplay:10.37,2013-02-25 02:04:00,
2013-02-24 21:09:00,29.7,26.6,30.02,West,262,5.0,5.0,88,0.00,OVC,,0.04,0.0,WeatherDisplay:10.37,2013-02-25 02:09:00,
2013-02-24 21:14:00,29.7,26.6,30.02,SW,227,2.3,2.3,88,0.00,OVC,,0.04,0.0,WeatherDisplay:10.37,2013-02-25 02:14:00,
2013-02-24 21:19:00,29.8,26.7,30.02,SW,223,4.0,4.0,88,0.00,OVC,,0.04,0.0,WeatherDisplay:10.37,2013-02-25 02:19:00,
2013-02-24 21:24:00,29.8,26.7,30.02,West,265,10.4,10.4,88,0.00,OVC,,0.04,0.0,WeatherDisplay:10.37,2013-02-25 02:24:00,
2013-02-24 21:29:00,29.8,26.7,30.02,West,265,6.9,6.9,88,0.00,OVC,,0.04,0.0,WeatherDisplay:10.37,2013-02-25 02:29:00,
2013-02-24 21:34:00,29.8,26.7,30.02,WSW,245,2.3,2.3,88,0.00,OVC,,0.04,0.0,WeatherDisplay:10.37,2013-02-25 02:34:00,
2013-02-24 21:39:00,29.8,26.7,30.02,WSW,256,3.5,3.5,88,0.00,OVC,,0.04,0.0,WeatherDisplay:10.37,2013-02-25 02:39:00,
2013-02-24 21:44:00,29.8,26.4,30.02,SW,229,6.0,6.0,87,0.00,OVC,,0.04,0.0,WeatherDisplay:10.37,2013-02-25 02:44:00,
2013-02-24 21:49:00,29.8,26.4,30.02,WSW,239,3.0,3.0,87,0.00,OVC,,0.04,0.0,WeatherDisplay:10.37,2013-02-25 02:49:00,
2013-02-24 21:54:00,29.8,26.4,30.02,SSW,204,5.8,5.8,87,0.00,OVC,,0.04,0.0,WeatherDisplay:10.37,2013-02-25 02:54:00,
2013-02-24 21:59:00,29.8,26.4,30.02,WSW,245,4.0,4.0,87,0.00,OVC,,0.04,0.0,WeatherDisplay:10.37,2013-02-25 02:59:00,
2013-02-24 22:04:00,30.0,26.6,30.02,West,262,9.0,9.0,87,0.00,OVC,,0.04,0.0,WeatherDisplay:10.37,2013-02-25 03:04:00,
2013-02-24 22:09:00,30.0,26.6,30.02,WSW,251,4.0,4.0,87,0.00,OVC,,0.04,0.0,WeatherDisplay:10.37,2013-02-25 03:09:00,
2013-02-24 22:14:00,30.0,26.6,30.02,SW,236,5.0,5.0,87,0.00,OVC,,0.04,0.0,WeatherDisplay:10.37,2013-02-25 03:14:00,
2013-02-24 22:19:00,30.0,26.6,30.02,WSW,244,5.0,5.0,87,0.00,OVC,,0.04,0.0,WeatherDisplay:10.37,2013-02-25 03:19:00,
2013-02-24 22:24:00,30.0,26.3,30.02,West,277,4.0,4.0,86,0.00,OVC,,0.04,0.0,WeatherDisplay:10.37,2013-02-25 03:24:00,
2013-02-24 22:29:00,30.0,26.3,30.02,WSW,241,5.0,5.0,86,0.00,OVC,,0.04,0.0,WeatherDisplay:10.37,2013-02-25 03:29:00,
2013-02-24 22:34:00,30.0,26.3,30.02,WSW,243,4.0,4.0,86,0.00,OVC,,0.04,0.0,WeatherDisplay:10.37,2013-02-25 03:34:00,
2013-02-24 22:39:00,30.0,26.3,30.02,West,278,5.0,5.0,86,0.00,OVC,,0.04,0.0,WeatherDisplay:10.37,2013-02-25 03:39:00,
2013-02-24 22:44:00,30.0,26.3,30.02,West,265,5.8,5.8,86,0.00,OVC,,0.04,0.0,WeatherDisplay:10.37,2013-02-25 03:44:00,
2013-02-24 22:49:00,30.0,26.3,30.02,West,268,5.0,5.0,86,0.00,OVC,,0.04,0.0,WeatherDisplay:10.37,2013-02-25 03:49:00,
2013-02-24 22:54:00,30.0,26.3,30.02,West,279,6.0,6.0,86,0.00,OVC,,0.04,0.0,WeatherDisplay:10.37,2013-02-25 03:54:00,
2013-02-24 22:59:00,30.0,26.3,30.02,SW,232,6.0,6.0,86,0.00,OVC,,0.04,0.0,WeatherDisplay:10.37,2013-02-25 03:59:00,
2013-02-24 23:04:00,30.0,26.3,30.02,West,274,4.0,4.0,86,0.00,OVC,,0.04,0.0,WeatherDisplay:10.37,2013-02-25 04:04:00,
2013-02-24 23:09:00,30.0,26.3,30.02,WNW,298,6.0,6.0,86,0.00,OVC,,0.04,0.0,WeatherDisplay:10.37,2013-02-25 04:09:00,
2013-02-24 23:14:00,30.1,26.4,30.02,West,259,2.3,2.3,86,0.00,OVC,,0.04,0.0,WeatherDisplay:10.37,2013-02-25 04:14:00,
2013-02-24 23:19:00,30.1,26.4,30.02,WSW,255,3.0,3.0,86,0.00,OVC,,0.04,0.0,WeatherDisplay:10.37,2013-02-25 04:19:00,
2013-02-24 23:24:00,30.1,26.4,30.02,West,262,3.5,3.5,86,0.00,OVC,,0.04,0.0,WeatherDisplay:10.37,2013-02-25 04:24:00,
2013-02-24 23:29:00,30.1,26.4,30.02,West,267,2.3,2.3,86,0.00,OVC,,0.04,0.0,WeatherDisplay:10.37,2013-02-25 04:29:00,
2013-02-24 23:34:00,30.1,26.4,30.02,West,260,2.0,2.0,86,0.00,OVC,,0.04,0.0,WeatherDisplay:10.37,2013-02-25 04:34:00,
2013-02-24 23:39:00,30.3,26.6,30.02,WSW,249,2.3,0.0,86,0.00,OVC,,0.04,0.0,WeatherDisplay:10.37,2013-02-25 04:39:00,
2013-02-24 23:44:00,30.3,26.6,30.02,WSW,246,3.5,3.5,86,0.00,OVC,,0.04,0.0,WeatherDisplay:10.37,2013-02-25 04:44:00,
2013-02-24 23:49:00,30.3,26.6,30.02,WSW,253,5.0,5.0,86,0.00,OVC,,0.04,0.0,WeatherDisplay:10.37,2013-02-25 04:49:00,
2013-02-24 23:54:00,30.3,26.6,30.02,West,265,2.3,2.3,86,0.00,OVC,,0.04,0.0,WeatherDisplay:10.37,2013-02-25 04:54:00,
2013-02-24 23:59:00,30.3,26.6,30.02,WSW,250,3.5,3.5,86,0.00,OVC,,0.04,0.0,WeatherDisplay:10.37,2013-02-25 04:59:00,